www.pogodaiklimat.ru

Погода и климат >> Архив погоды >> Россия >> Красноярский край >> Туруханск


АРХИВ ПОГОДЫ в Туруханске

Время (UTC), дата Ветер
(напр.,м/с)
 
Видим.   Явления Облачность Т
(С)
Тd
(С)
f
(%)
Тe
(С)
Тes
(С)
Комфортность P
(гПа)
Po
(гПа)
Тmin
(С)
Tmax
(С)
R
(мм)
R24
(мм)
S
(см)
03 12.09 С 3 50 км 6/4 300 м
[Cb cap Ci fib]
-0.2 -2.9 82 -5 -4 1003.4 998.1 -2.2
06 12.09 С 4 50 км 8/6 300 м
[Cb cap Ci fib]
+1.1 -4.5 66 -4 -3 1005.2 999.9
09 12.09 С 3 50 км 9/8 300 м
[Sc Ci fib]
+2.6 -4.0 62 -1 -1 1006.4 1001.2
12 12.09 СЗ 1 50 км 9/8 300 м
[Sc Cs]
+1.6 -3.2 70 0 0 1007.5 1002.2 +2.8
15 12.09 СЗ 3 20 км 10/10 300 м
[Cb cap]
+2.0 -1.1 80 -2 -2 1006.5 1001.2
18 12.09 С 5
{11}
20 км 10/10 300 м
[Cb cap]
+2.2 -0.5 82 -3 -3 1005.5 1000.3
21 12.09 С 3
{11}
10 км слаб. ливневой дождь 10/10 300 м
[Cb cap]
+2.1 +1.3 94 -2 -2 1005.0 999.8
00 13.09 СЗ 3 20 км слаб. ливневой дождь 9/9 300 м
[Cb cap]
+2.4 +1.4 93 -2 -2 1004.4 999.2 +1.6 1
03 13.09 С 3
{11}
20 км {ливн. осадки} 10/10 300 м
[Cb cap]
+3.2 0.0 80 -1 -1 1004.7 999.5
06 13.09 СЗ 5
{10}
20 км {ливн. осадки} 10/10 300 м
[Cb cap]
+4.7 +0.3 73 0 0 1005.1 999.9
09 13.09 СЗ 5
{10}
20 км 9/8 600 м
[Sc Ci fib]
+6.9 +1.7 69 +3 +3 1005.8 1000.7
12 13.09 СЗ 4
{11}
20 км 9/9 600 м
[Sc]
+5.4 +0.8 72 +2 +2 1007.5 1002.3 +7.2 0.0
15 13.09 СЗ 3 20 км 9/9 600 м
[Sc]
+4.1 +1.3 82 0 0 1007.9 1002.7
18 13.09 СЗ 2 20 км 10/10 600 м
[Sc]
+3.1 +1.8 91 0 0 1008.4 1003.2
21 13.09 СЗ 2 20 км 9/9 300 м
[Sc]
+2.8 +1.5 91 -0 -0 1008.8 1003.6
00 14.09 СЗ 2 20 км 9/9 300 м
[Sc]
+1.8 -0.4 85 -2 -2 1009.4 1004.1 +1.7
03 14.09 З 2 20 км 9/9 300 м
[Sc]
+1.3 -2.1 78 -2 -2 1010.5 1005.2 +1.2
06 14.09 З 3 20 км {ливн. осадки} 9/9 300 м
[Cb cap]
+2.2 -0.8 81 -2 -2 1010.7 1005.5
09 14.09 З 3 10 км слаб. ливневой снег 9/9 300 м
[Cb cap]
+2.8 -1.7 72 -1 -1 1011.2 1006.0
12 14.09 С 3 10 км слаб. ливневой снег 10/10 300 м
[Cb cap]
+2.2 -1.2 78 -2 -2 1011.8 1006.6 +3.2 0.0
15 14.09 СЗ 2 20 км {ливн. осадки} 8/8 300 м
[Cb cap]
+0.3 -1.7 86 -3 -3 1011.9 1006.6
18 14.09 СЗ 1 20 км {ливн. осадки} 9/9 300 м
[Cb cap]
+0.3 -1.7 86 -2 -2 1011.3 1006.0
21 14.09 СЗ 2 20 км 9/9 300 м
[Cb cap]
-0.5 -2.3 88 -4 -4 1011.2 1005.9
00 15.09 СЗ 2 1000 м ливневой снег 10/10 300 м
[Cb cap]
-0.3 -1.2 94 -4 -4 1011.5 1006.2 -0.7 0.4 <0.5
03 15.09 С 2 1000 м ливневой снег 10/10 300 м
[Cb cap]
+1.0 +0.2 94 -3 -3 1011.8 1006.5
06 15.09 СЗ 3 20 км {ливн. осадки} 10/10 300 м
[Cb cap]
+1.7 -2.7 73 -2 -2 1012.5 1007.2
09 15.09 СЗ 2 20 км 10/10 300 м
[Cb cap]
+0.9 -2.0 81 -2 -2 1013.7 1008.4
12 15.09 З 1 20 км 10/10 300 м
[Cb cap]
+1.0 -3.9 70 -1 -1 1014.5 1009.2 +1.7 0.0
15 15.09 Ю 2 20 км 10/10 600 м
[Sc]
+1.1 -3.1 74 -2 -2 1014.6 1009.3
18 15.09 ЮЗ 2 20 км 10/10 600 м
[Sc]
+0.6 -3.7 73 -3 -3 1014.9 1009.6
21 15.09 ЮВ 2 20 км 10/10 600 м
[Sc]
0.0 -4.1 74 -3 -3 1014.6 1009.3
00 16.09 ЮВ 2 20 км 10/10 300 м
[Sc]
-0.6 -4.0 78 -4 -4 1014.6 1009.3 -0.7
03 16.09 В 3 20 км 10/10 300 м
[Sc]
+0.5 -3.5 75 -4 -4 1013.4 1008.1
06 16.09 В 2 50 км 10/10 300 м
[Sc]
+3.0 -3.1 64 0 0 1012.1 1006.8
09 16.09 ЮВ 2 50 км 9/9 300 м
[Sc]
+5.9 -1.0 61 +4 +4 1009.8 1004.6
12 16.09 ЮВ 3
{10}
10 км слаб. ливневой дождь 10/10 300 м
[Cb cap]
+5.2 +2.0 80 +2 +2 1008.5 1003.3 +5.9 1
15 16.09 ЮВ 3 10 км слаб. ливневой дождь 10/10 300 м
[Cb cap]
+3.9 +3.2 95 -0 -0 1006.9 1001.7
18 16.09 Ю 4 10 км слаб. ливневой дождь 10/10 300 м
[Cb cap]
+4.9 +4.2 95 +1 +1 1005.7 1000.5
21 16.09 Ю 3 4000 м слаб. ливневой дождь {гроза} 10/10 300 м
[Cb cap]
+6.4 +5.7 95 +3 +3 1005.4 1000.2
00 17.09 ЮВ 3 500 м слаб. ливневой дождь {гроза} туман ?/? +7.1 +6.9 99 +4 +4 1004.8 999.7 +2.9 2
03 17.09 ЮЗ 3
{10}
20 км в посл. час ливневой дождь {туман} 9/9 300 м
[Cb cap]
+9.2 +8.2 93 +7 +7 1004.1 999.0
06 17.09 ЮВ 3 10 км слаб. ливневой дождь {туман} 10/10 300 м
[Cb cap]
+11.0 +9.4 90 +9 +9 1003.0 997.9
09 17.09 ЮЗ 2 20 км {ливн. осадки} 10/10 300 м
[Cb cap]
+14.0 +11.0 82 +13 +13 1002.7 997.7
12 17.09 Ю 4 10 км слаб. ливневой дождь 10/10 300 м
[Cb cap]
+12.3 +11.0 92 +10 +10 1002.1 997.1 +14.0 2
15 17.09 Ю 4 10 км в посл. час ливневой дождь 9/9 300 м
[Cb cap]
+12.1 +10.0 87 +10 +10 1000.7 995.7
18 17.09 Ю 5
{11}
10 км в посл. час ливневой дождь 9/9 300 м
[Cb cap]
+13.0 +9.3 78 +11 +11 999.2 994.3
21 17.09 Ю 4 10 км {ливн. осадки} 10/10 300 м
[Cb cap]
+12.4 +8.8 79 +10 +10 996.6 991.7
00 18.09 ЮВ 2 10 км слаб. ливневой дождь 10/10 300 м
[Cb cap]
+11.9 +10.9 94 +11 +11 995.2 990.3 +11.2 3
03 18.09 Ю 6-10
{11}
20 км в посл. час ливневой дождь 9/8 300 м
[Cb cap Cs]
+11.1 +8.9 86 +8 +8 995.2 990.2 +10.7
06 18.09 Ю 6-12
{17}
10 км слаб. ливневой дождь 10/10 300 м
[Cb cap]
+8.8 +5.5 80 +5 +5 996.8 991.8
09 18.09 ЮЗ 4
{12}
4000 м слаб. ливневой дождь 10/10 300 м
[Cb cap]
+7.3 +5.7 90 +4 +4 1002.2 997.1
12 18.09 Ю 2 20 км {ливн. осадки} 8/6 600 м
[Cb cap Ci fib]
+8.0 +6.5 90 +6 +6 1005.0 999.9 +12.0 2
15 18.09 Ю 1 20 км в посл. час ливневой дождь 10/10 300 м
[Cb cap]
+7.1 +5.5 90 +6 +6 1006.8 1001.7
18 18.09 Ю 2 20 км {ливн. осадки} 8/8 300 м
[Cb cap]
+6.3 +5.2 93 +4 +4 1008.2 1003.0
21 18.09 В 1 20 км 8/8 300 м
[Cb cap]
+5.1 +4.4 95 +4 +4 1008.5 1003.3
00 19.09 В 1 20 км 8/8 300 м
[Cb cap]
+5.0 +4.3 95 +4 +4 1008.5 1003.3 +3.8 0.0

 

Местоположение метеостанции Туруханск (Красноярский край, Россия): широта 65.78 долгота 87.93 высота над уровнем моря 38 м.

В архиве по умолчанию представлена погода в Туруханске за последнюю неделю. Архивные данные за месяц целиком и за предыдущие месяцы, начиная с января 2011 года, Вы можете получить, выбрав интересующий диапазон дат из раскрывающегося списка и нажав кнопку "Ввод!".


*Определитесь, кто Вы:
робот инопланетянин человек

Внимание! Время в таблицах - всемирное. Для получения местного времени необходимо прибавить поправку, которая равна 7 ч.

Смотрите также архив погоды в соседних городах и на ближайших метеорологических станциях:

Погода в Курейке (Красноярский край, Россия) (83 км)
Погода в Большом Пороге (Эвенкия, Россия) (98 км)
Погода в Светлогорске (Красноярский край, Россия) (132 км)
Погода в Верещагино (Красноярский край, Россия) (174 км)
Погода в Горбиачине (Красноярский край, Россия) (189 км)
Погода в Игарке (Красноярский край, Россия) (197 км)
Погода в Советской Речке (Красноярский край, Россия) (218 км)
Погода в Красноселькупске (Ямало-Ненецкий АО, Россия) (251 км)
Погода в Снежногорске (Красноярский край, Россия) (258 км)
Погода в Агате (Эвенкия, Россия) (276 км)

Пояснения к столбцам:

Ветер - указаны скорость ветра в м/с - средняя за 10 мин, порывы в срок и между сроками (в фигурных скобках) и направление, откуда дует ветер: С - северный, СВ - северо-восточный, В - восточный, ЮВ - юго-восточный, Ю - южный, ЮЗ - юго-западный, З - западный, СЗ - северо-западный.
Видимость - горизонтальная дальность видимости в метрах или километрах. При видимости от 1 до 10 км при отсутствии осадков обычно наблюдается дымка, при ухудшении видимости до 1 км и менее - туман. В сухую погоду видимость может ухудшаться дымом, пылью или мглою.
Явления - указаны атмосферные явления, наблюдавшиеся в срок или в последний час перед сроком; фигурными скобками обозначены явления, наблюдавшиеся между сроками (за 1-3 часа до срока); квадратными скобками обозначены град или гололедные отложения с указанием их диаметра в мм.
Облачность - указаны через наклонную черту общая и нижняя облачность в баллах и высота нижней границы облаков в метрах; квадратными скобками обозначены формы облаков: Ci - перистые, Cs - перисто-слоистые, Cc - перисто-кучевые, Ac - высококучевые, As - высокослоистые, Sc - слоисто-кучевые, Ns - слоисто-дождевые, Cu - кучевые, Cb - кучево-дождевые. Подробнее классификацию облаков см. в Атласе облаков (PDF).
T - Температура воздуха - температура, измеренная на высоте 2 м над землей.
Td - Температура точки росы - температура, при понижении до которой содержащийся в воздухе водяной пар достигнет насыщения.
f - Относительная влажность воздуха - влажноcть воздуха, измеренная на высоте 2 м над землей.
Te - Эффективная температура - температура, которую ощущает одетый по сезону человек в тени. Характеристика душности погоды. При расчете учитывается влияние влажности воздуха и скорости ветра на теплоощущения человека.
Tes - Эффективная температура на солнце - температура, которую ощущает человек, с поправкой на солнечный нагрев. Характеристика знойности погоды. Зависит от высоты солнца над горизонтом, облачности и скорости ветра. Ночью, в пасмурную погоду, а также при ветре 12 м/с и более поправка равна нулю.
P - Атмосферное давление - приведенное к уровню моря атмосферное давление.
Po - Атмосферное давление - измеренное на уровне метеостанции атмосферное давление.
Tmin - Минимальная температура - минимум температуры воздуха на высоте 2 м над землей.
Tmax - Максимальная температура - максимум температуры воздуха на высоте 2 м над землей.
R - Количество осадков - Количество выпавших осадков за период времени, мм. При наведении курсора мыши на число - период времени, за который выпало указанное количество осадков.
R24 - Количество осадков - Количество выпавших осадков за 24 часа, мм.
S - Снежный покров - Высота снежного покрова, см. При наведении курсора мыши на число - состояние снежного покрова и степень покрытия местности в баллах.